Location: N�rnberg
(49.4471°N, 11.0632°E)
Time: 18:35:05
(UTC+01:00)

Envisat - Pass Details

Date: 17 February 2026
Orbit: 761 x 763 km, 98.4° (Epoch: 6 March)

Event Time Altitude Azimuth Distance (km) Brightness Sun altitude
Rises 03:35:49 0° 10° (N) 3,236 6.7 -36.6°
Reaches altitude 10° 03:38:10 10° 7° (N) 2,306 5.8 -36.2°
Enters shadow 03:38:48 14° 5° (N) 2,062 5.5 -36.1°
